NOAA 16 DEB, 41307

Orbit data source: Space-Track

NOAA 16 DEB, 41307 is space debris in SSO originally from a launch on Thu, 21 Sep 2000 UTC launched from the Air Force Western Test Range (AFWTR). Debris objects in space refer to the collection of defunct objects orbiting the Earth. Examples of debris include non-operational satellites, rocket bodies, and fragments generated from explosions, collisions, or faulty payload assembly.

Loading next visibility...
Identifier
41307, 2000-055HK
Orbit
SSO
Country
Flag of USUS
Related business
Manufacturer
Unknown
Mission
Spacecraft
Bus & Motor
Unknown
Mass
Unknown
Launch date (UTC)
2000-09-21 (25 years ago)
Launch vehicle
Unknown
Launch site
Air Force Western Test Range (AFWTR)
Object type
Payload
Rocket body
Debris
Shape & HBR
Unknown shape, 0.1 m
Radar Cross Section
Small (<0.1 m²)

Expand to show TLE details & history
Last TLE update: 18 hours ago

TLE from 18 hours ago
0 NOAA 16 DEB
1 41307U 00055HK  25349.42594091  .00031221  00000-0  38256-2 0  9997
2 41307  98.9092 162.7677 0005517   9.4126 350.7186 14.83069615518041
Epoch: 2025-12-15T10:13Z
TLE epoch observation values (Epoch: 2025-12-15T10:13:21.294Z)
Latitude
-0.00012°
Longitude
-74.89569°
Altitude
618.834 km
Speed
7.552 km/s
True Right ascension
10h 51m 04s
True Declination
0° 00' 00"
Sunlit
Object was in daylight at epoch
Visualization orbit readout
Latitude
Unknown
Longitude
Unknown
Altitude
Unknown
Speed
Unknown
Apparent Right ascension
Unknown
Apparent Declination
Unknown
Sunlit
N/A
Visualization observer readout
Local Sidereal Time
02:58:43
Azimuth
Unknown
Elevation
Unknown
Doppler factor
Unknown
Orbital elements
Apogee altitude
620.595 km
Perigee altitude
612.877 km
Semi-major axis
6,994.873 km
Eccentricity
0.00055
Inclination
98.9092°
RAAN
162.7677°
Arg. of periapsis
9.4126°
True anomaly
350.7084°
Mean anomaly
350.7186°
Eccentric anomaly
350.7135°
Mean motion
3.71 °/min
Orbital period
97.04 mins
BSTAR
0.0038256
Loading maneuver chart data...
Computing Atmospheric mass density...
Loading historical data...
Loading historical data...
Loading historical data...
Loading historical data...
Loading historical data...
Loading historical data...
Loading historical data...

Documentation

Showing up to 5 results
|